{"data":{"norad_id":62962,"epoch":"2026-09-21T15:23:59.587296Z","epoch_age_seconds":66746,"freshness":"FRESH","line1":"1 62962U 25029Q   26264.64166189  .00013959  00000+0  42351-3 0  9998","line2":"2 62962  53.1601  40.5188 0001354  93.9816 266.1341 15.34398963 91327","mean_motion":15.34398963,"eccentricity":0.0001354,"inclination_deg":53.1601,"raan_deg":40.5188,"arg_perigee_deg":93.9816,"mean_anomaly_deg":266.1341,"bstar":0.00042351,"rev_number":9132,"period_min":93.847821506902,"perigee_km":461.78007220553,"apogee_km":463.63257257723,"semimajor_km":6840.8433223914,"source":"CELESTRAK","updated_at":"2026-09-22T09:00:49.714032Z"}}